• Join FlightAware (Why Join?)
  • Login
  • US Flag GB Flag 
11:13 EST


 

Airport Tracker/Info


-or-


 

Live Flight TrackerFlight Track Log ✈ ASQ6041 ✈ 16-Jul-2013 ✈ KDEN - KGUC

Flight Track Log - Related Links

Times and Time Zones

All times are in EDT time to prevent confusion due to time zone crossing. See the ASQ6041 flight status page for this flight to view local times or setup timezone preferences in your user account.

Time Position Orientation Groundspeed Altitude Reporting Facility
EDT Latitude Longitude Course Direction KTS MPH feet Rate Location/Type
13:30 39.7833 -104.6667 231° Southwest 227 261 8,100  Level Denver TRACON
13:31 39.7167 -104.7000 201° Southwest 270 311 10,100 1,740 Climbing Denver TRACON
13:32 39.6852 -104.9467 234° Southwest  Level FlightAware Approximate
13:32 39.6500 -104.7500 210° Southwest 318 366 11,500  Level Denver TRACON
13:33 39.6329 -105.0427 235° Southwest  Level FlightAware Approximate
13:34 39.5802 -105.1381 229° Southwest  Level FlightAware Approximate
13:34 39.5144 -104.8422 208° Southwest 361 415 13,600  Level Denver Center
13:35 39.5224 -105.2284 232° Southwest  Level FlightAware Approximate
13:35 39.4192 -104.9008 205° Southwest 380 437 15,100  Level Denver Center
13:36 39.4634 -105.3242 231° Southwest  Level FlightAware Approximate
13:36 39.3231 -104.9561 204° Southwest 381 438 16,700  Level Denver Center
13:37 39.2172 -105.0211 205° Southwest 392 451 17,900 600 Climbing Denver Center
13:38 39.1158 -105.0783 204° Southwest 395 455 18,000  Climbing Denver Center
13:39 39.0089 -105.1403 204° Southwest 417 480 18,000  Level Denver Center
13:40 38.9036 -105.2044 205° Southwest 418 481 18,000  Level Denver Center
13:41 38.7875 -105.2717 204° Southwest 419 482 18,000  Level Denver Center
13:42 38.6747 -105.3583 211° Southwest 428 493 18,000  Level Denver Center
13:43 38.6325 -105.4925 248° West 433 498 18,000  Level Denver Center
13:44 38.6169 -105.6372 262° West 432 497 18,000  Level Denver Center
13:45 38.5981 -105.8094 262° West 436 502 18,000  Level Denver Center
13:46 38.5811 -105.9567 262° West 437 503 18,000  Level Denver Center
13:47 38.5606 -106.1267 261° West 437 503 18,000  Level Denver Center
13:48 38.5464 -106.2611 262° West 427 491 18,000 -60 Level Denver Center
13:49 38.5653 -106.3800 282° West 347 399 17,900 -840 Descending Denver Center
13:50 38.5811 -106.5147 279° West 325 374 16,300 -960 Descending Denver Center
13:51 38.5917 -106.6189 277° West 313 360 16,000 -180 Descending Denver Center
13:52 38.6025 -106.7108 279° West 292 336 16,000 -360 Level Denver Center
13:53 38.6142 -106.7994 280° West 273 314 15,300 -720 Descending Denver Center
13:55 38.5295 -106.9203 228° Southwest  Level FlightAware Approximate